sat.trackr.live / text

‹ back to catalog

FM-5

NORAD 35493 · 2009-034A

PAYLOAD ACTIVE UNKNOWN

§ Identity

Operator
Country
US
Launch date
2009-06-30
Launch site
TYMSC
Launch vehicle
Mass (kg)
RCS (m²)
10.00

Purposes: comms

External: N2YO · Heavens-Above · Gunter

§ Orbital elements

Epoch: 2026-09-18T23:38:38.865120Z

Period
1,436.07 min
Inclination
0.0362°
Eccentricity
0.0000751
Mean motion
1.00273379 rev/d
Perigee alt
35,783.0 km
Apogee alt
35,789.3 km
Semi-major
42,164.3 km
B*
0.0000e+0
RAAN
265.1327°
Arg perigee
164.5677°
Mean anomaly
196.7245°
Rev number
4,758

§ Raw data

FM-51 35493U 09034A   26261.98517205 -.00000205  00000+0  00000+0 0  99902 35493   0.0362 265.1327 0000751 164.5677 196.7245  1.00273379 47582

JSON: /api/v1/satellites/35493 · /tle

For live sub-satellite position, see the globe view (requires WebGL).

§ Visibility from observer

Set your observer location to see the next 7 days of passes ≥ 10°. The values pass through the URL so the page stays shareable.

No JS? Fill the form by hand. The geolocation button needs JavaScript.